When you browse on this site, cookies collect data to enhance your experience and personalize the content and advertising you see.
Visit our Privacy Policy to learn more. By continuing to use the site, you agree to this use of cookies and data.
  • In Hungary
  • List of Countries
  • For 7 days
  • Water Temperature
  • Satellite Maps
  • Weather Map
  • News
  • Weather Widgets
  • user-avatar
    Login

    Hourly Weather San Miguel de Tucumán

    Today, 26 April, Friday

    Time Temperature Precipitation Wind Pressure Humidity
    00:00 +18°C° 0 mm 1 mps 722 mmHg 90%
    01:00 +18°C° 0 mm 1 mps 722 mmHg 90%
    02:00 +18°C° 0 mm 1 mps 722 mmHg 90%
    03:00 +16°C° 0 mm 1 mps 722 mmHg 91%
    04:00 +16°C° 0 mm 1 mps 721 mmHg 91%
    05:00 +16°C° 0 mm 1 mps 721 mmHg 91%
    06:00 +18°C° 0 mm 1 mps 721 mmHg 90%
    07:00 +18°C° 0 mm 1 mps 722 mmHg 88%
    08:00 +19°C° 0 mm 1 mps 722 mmHg 86%
    09:00 +20°C° 0 mm 1 mps 722 mmHg 83%
    10:00 +21°C° 0 mm 1 mps 722 mmHg 80%
    11:00 +23°C° 0 mm 2 mps 722 mmHg 77%
    12:00 +23°C° 0 mm 2 mps 722 mmHg 78%
    13:00 +23°C° 0 mm 2 mps 721 mmHg 79%
    14:00 +23°C° 0 mm 2 mps 720 mmHg 80%
    15:00 +22°C° 0 mm 1 mps 720 mmHg 80%
    16:00 +22°C° 0 mm 1 mps 720 mmHg 81%
    17:00 +22°C° 0 mm 1 mps 720 mmHg 82%
    18:00 +21°C° 0 mm 1 mps 721 mmHg 85%
    19:00 +20°C° 0 mm 1 mps 721 mmHg 89%
    20:00 +19°C° 0 mm 1 mps 722 mmHg 92%
    21:00 +19°C° 0 mm 1 mps 722 mmHg 91%
    22:00 +18°C° 0 mm 1 mps 722 mmHg 89%
    23:00 +18°C° 0 mm 1 mps 722 mmHg 88%

    Tomorrow, 27 April, Saturday

    Time Temperature Precipitation Wind Pressure Humidity
    00:00 +18°C° 0 mm 1 mps 722 mmHg 86%
    01:00 +18°C° 0 mm 1 mps 722 mmHg 84%
    02:00 +18°C° 0 mm 1 mps 722 mmHg 82%
    03:00 +18°C° 0 mm 1 mps 722 mmHg 79%
    04:00 +16°C° 0 mm 1 mps 722 mmHg 76%
    05:00 +16°C° 0 mm 1 mps 721 mmHg 73%
    06:00 +18°C° 0 mm 1 mps 722 mmHg 71%
    07:00 +19°C° 0 mm 1 mps 722 mmHg 69%
    08:00 +19°C° 0 mm 1 mps 723 mmHg 66%
    09:00 +22°C° 0 mm 1 mps 723 mmHg 63%
    10:00 +24°C° 0 mm 1 mps 723 mmHg 59%
    11:00 +26°C° 0 mm 2 mps 723 mmHg 55%
    12:00 +26°C° 0 mm 2 mps 722 mmHg 54%
    13:00 +27°C° 0 mm 2 mps 721 mmHg 53%
    14:00 +28°C° 0 mm 2 mps 720 mmHg 53%
    15:00 +27°C° 0 mm 2 mps 720 mmHg 58%
    16:00 +26°C° 0 mm 2 mps 719 mmHg 63%
    17:00 +25°C° 0 mm 2 mps 719 mmHg 69%
    18:00 +24°C° 0 mm 2 mps 719 mmHg 73%
    19:00 +22°C° 0 mm 1 mps 720 mmHg 78%
    20:00 +20°C° 0 mm 1 mps 720 mmHg 83%
    21:00 +20°C° 0 mm 1 mps 720 mmHg 81%
    22:00 +20°C° 0 mm 1 mps 720 mmHg 80%
    23:00 +20°C° 0 mm 1 mps 720 mmHg 78%

    Day after tomorrow, 28 April, Sunday

    Time Temperature Precipitation Wind Pressure Humidity
    00:00 +19°C° 0 mm 1 mps 720 mmHg 78%
    01:00 +19°C° 0 mm 1 mps 720 mmHg 77%
    02:00 +19°C° 0 mm 1 mps 719 mmHg 76%
    03:00 +19°C° 0 mm 1 mps 719 mmHg 76%
    04:00 +18°C° 0 mm 1 mps 719 mmHg 75%
    05:00 +18°C° 0 mm 1 mps 718 mmHg 74%
    06:00 +19°C° 0 mm 1 mps 719 mmHg 72%
    07:00 +20°C° 0 mm 1 mps 719 mmHg 71%
    08:00 +18°C° 0 mm 0 mps 720 mmHg 69%
    09:00 +23°C° 0 mm 1 mps 720 mmHg 65%
    10:00 +25°C° 0 mm 1 mps 720 mmHg 61%
    11:00 +27°C° 0 mm 2 mps 721 mmHg 57%
    12:00 +28°C° 0 mm 2 mps 720 mmHg 57%
    13:00 +28°C° 0 mm 2 mps 719 mmHg 56%
    14:00 +29°C° 0 mm 3 mps 718 mmHg 56%
    15:00 +28°C° 0 mm 2 mps 718 mmHg 60%
    16:00 +28°C° 0 mm 2 mps 718 mmHg 64%
    17:00 +27°C° 0 mm 2 mps 718 mmHg 69%
    18:00 +25°C° 0 mm 1 mps 718 mmHg 74%
    19:00 +23°C° 0 mm 1 mps 718 mmHg 80%
    20:00 +22°C° 0 mm 1 mps 718 mmHg 85%
    21:00 +21°C° 0 mm 1 mps 718 mmHg 85%
    22:00 +21°C° 0 mm 1 mps 719 mmHg 85%
    23:00 +21°C° 0 mm 1 mps 719 mmHg 84%

    29 April, Monday

    Time Temperature Precipitation Wind Pressure Humidity
    00:00 +21°C° 0 mm 1 mps 718 mmHg 85%
    01:00 +20°C° 0 mm 1 mps 718 mmHg 85%
    02:00 +20°C° 0 mm 1 mps 718 mmHg 85%
    03:00 +20°C° 0 mm 1 mps 718 mmHg 85%
    04:00 +19°C° 0 mm 1 mps 717 mmHg 85%
    05:00 +17°C° 0 mm 0 mps 717 mmHg 85%
    06:00 +18°C° 0 mm 0 mps 718 mmHg 83%
    07:00 +19°C° 0 mm 0 mps 718 mmHg 81%
    08:00 +19°C° 0 mm 0 mps 719 mmHg 78%
    09:00 +23°C° 0 mm 1 mps 719 mmHg 73%
    10:00 +25°C° 0 mm 1 mps 719 mmHg 68%
    11:00 +27°C° 0 mm 2 mps 719 mmHg 63%
    12:00 +27°C° 0 mm 2 mps 719 mmHg 62%
    13:00 +28°C° 0 mm 2 mps 718 mmHg 61%
    14:00 +28°C° 0 mm 2 mps 717 mmHg 60%
    15:00 +28°C° 0 mm 2 mps 717 mmHg 66%
    16:00 +27°C° 0 mm 2 mps 717 mmHg 71%
    17:00 +26°C° 0 mm 1 mps 717 mmHg 76%
    18:00 +25°C° 0.1 mm 1 mps 718 mmHg 82%
    19:00 +24°C° 0.1 mm 1 mps 718 mmHg 87%
    20:00 +23°C° 0.1 mm 1 mps 719 mmHg 93%
    21:00 +23°C° 0.2 mm 1 mps 719 mmHg 93%
    22:00 +22°C° 0.2 mm 1 mps 719 mmHg 94%
    23:00 +20°C° 0.2 mm 0 mps 719 mmHg 94%

    30 April, Tuesday

    Time Temperature Precipitation Wind Pressure Humidity
    00:00 +20°C° 0.1 mm 0 mps 719 mmHg 94%
    01:00 +20°C° 0.1 mm 0 mps 719 mmHg 94%
    02:00 +20°C° 0.1 mm 0 mps 718 mmHg 94%
    03:00 +19°C° 0 mm 0 mps 718 mmHg 95%
    04:00 +19°C° 0 mm 0 mps 718 mmHg 95%
    05:00 +19°C° 0 mm 0 mps 718 mmHg 95%
    06:00 +19°C° 0 mm 0 mps 718 mmHg 93%
    07:00 +19°C° 0 mm 0 mps 718 mmHg 92%
    08:00 +20°C° 0 mm 0 mps 719 mmHg 90%
    09:00 +23°C° 0 mm 1 mps 719 mmHg 84%
    10:00 +25°C° 0 mm 1 mps 719 mmHg 78%
    11:00 +26°C° 0 mm 2 mps 719 mmHg 73%
    12:00 +26°C° 0.1 mm 2 mps 718 mmHg 77%
    13:00 +25°C° 0.1 mm 2 mps 718 mmHg 81%
    14:00 +25°C° 0.1 mm 2 mps 717 mmHg 85%
    15:00 +25°C° 0.1 mm 2 mps 718 mmHg 86%
    16:00 +25°C° 0.1 mm 1 mps 718 mmHg 87%
    17:00 +25°C° 0.1 mm 1 mps 718 mmHg 88%
    18:00 +23°C° 0 mm 1 mps 719 mmHg 90%
    19:00 +22°C° 0 mm 1 mps 720 mmHg 93%
    20:00 +19°C° 0 mm 0 mps 720 mmHg 95%
    21:00 +19°C° 0 mm 0 mps 721 mmHg 94%
    22:00 +19°C° 0 mm 0 mps 721 mmHg 92%
    23:00 +21°C° 0 mm 1 mps 721 mmHg 91%

    1 May, Wednesday

    Time Temperature Precipitation Wind Pressure Humidity
    00:00 +20°C° 0 mm 1 mps 721 mmHg 89%
    01:00 +20°C° 0 mm 1 mps 721 mmHg 87%
    02:00 +20°C° 0 mm 1 mps 721 mmHg 85%
    03:00 +20°C° 0 mm 1 mps 721 mmHg 83%
    04:00 +20°C° 0 mm 1 mps 721 mmHg 81%
    05:00 +20°C° 0 mm 1 mps 721 mmHg 80%
    06:00 +20°C° 0 mm 1 mps 721 mmHg 78%
    07:00 +21°C° 0 mm 1 mps 722 mmHg 77%
    08:00 +22°C° 0 mm 1 mps 722 mmHg 76%
    09:00 +24°C° 0 mm 1 mps 722 mmHg 70%
    10:00 +26°C° 0 mm 2 mps 722 mmHg 64%
    11:00 +28°C° 0 mm 3 mps 722 mmHg 59%
    12:00 +28°C° 0 mm 3 mps 721 mmHg 59%
    13:00 +28°C° 0 mm 3 mps 720 mmHg 59%
    14:00 +28°C° 0 mm 3 mps 719 mmHg 60%
    15:00 +28°C° 0 mm 3 mps 719 mmHg 63%
    16:00 +27°C° 0 mm 2 mps 719 mmHg 67%
    17:00 +26°C° 0 mm 2 mps 719 mmHg 70%
    18:00 +25°C° 0 mm 2 mps 719 mmHg 73%
    19:00 +24°C° 0 mm 2 mps 719 mmHg 76%
    20:00 +23°C° 0 mm 2 mps 720 mmHg 79%
    21:00 +23°C° 0 mm 2 mps 720 mmHg 80%
    22:00 +23°C° 0 mm 2 mps 719 mmHg 81%
    23:00 +21°C° 0 mm 2 mps 719 mmHg 82%
    Show more